Regional Weather Roundup
Issued by NWS Little Rock, AR

Home | Current Version | Previous Version | Text Only | Print | Product List | Glossary On
Versions: 1 2 3 4 5 6 7 8 9 10 11 12 13 14 15 16 17 18 19 20 21 22 23 24 25 26 27 28 29 30 31 32 33 34 35 36 37 38 39 40 41 42 43 44 45 46 47 48 49 50
000
ASUS44 KLZK 311505
RWRLZK

WEATHER ROUNDUP FOR ARKANSAS
NATIONAL WEATHER SERVICE LITTLE ROCK AR
900 AM CST SAT JAN 31 2015

NOTE: "FAIR" INDICATES FEW OR NO CLOUDS BELOW 12,000 FEET WITH NO
SIGNIFICANT WEATHER AND/OR OBSTRUCTIONS TO VISIBILITY.

ARZ001-003-010-029-311600-
NORTHWEST ARKANSAS

CITY           SKY/WX    TMP DP  RH WIND       PRES   REMARKS
FAYETTEVILLE   CLOUDY    43  21  41 VRB3      30.24S
FORT SMITH     CLOUDY    42  27  55 E12       30.29R
HARRISON       CLOUDY    37  26  64 SE12      30.27S
BENTONVILLE    CLOUDY    43  23  45 SE7       30.24S
ROGERS         CLOUDY    41  24  51 SE6       30.24S
SILOAM SPGS    CLOUDY    43  19  39 S6        30.25R
HIGHFILL       CLOUDY    42  24  49 SE5       30.23R
SPRINGDALE     MOSUNNY   43  14  31 SE9       30.25S
$$

ARZ004-005-016-311600-
NORTH CENTRAL ARKANSAS

CITY           SKY/WX    TMP DP  RH WIND       PRES   REMARKS
BATESVILLE     CLOUDY    36  28  75 S5        30.36R
FLIPPIN        CLOUDY    37  25  60 CALM      30.31R
MTN HOME       CLOUDY    37  26  64 S7        30.31R
$$

ARZ040-041-311600-
WEST CENTRAL ARKANSAS

CITY           SKY/WX    TMP DP  RH WIND       PRES   REMARKS
MENA           CLOUDY    43  32  65 CALM      30.28S
MOUNT IDA      CLOUDY    42  26  53 CALM      30.28S
$$

ARZ009-017-025-026-028-311600-
NORTHEAST ARKANSAS

CITY           SKY/WX    TMP DP  RH WIND       PRES   REMARKS
CORNING        FAIR      36  32  87 CALM      30.40R
JONESBORO      PTSUNNY   36  29  75 E3        30.39R
NEWPORT        CLOUDY    37  33  85 E7        30.39S
WALNUT RIDGE   PTSUNNY   36  28  75 NE6       30.39S
BLYTHEVILLE    CLOUDY    39  26  59 SE5       30.40R
$$

ARZ022-023-033-042-044-311600-
CENTRAL ARKANSAS

CITY           SKY/WX    TMP DP  RH WIND       PRES   REMARKS
LITTLE ROCK    CLOUDY    40  28  62 E5        30.35S
N LITTLE ROCK  CLOUDY    38  31  76 E6        30.35S
JACKSONVILLE   CLOUDY    38  29  70 E3        30.35R
SEARCY         CLOUDY    39  29  67 NE5       30.38R
HOT SPRINGS    CLOUDY    41  27  57 E6        30.32F
RUSSELLVILLE   CLOUDY    40  27  59 E7        30.32S
CLINTON        FAIR      39  30  70 CALM      30.36R HAZE
$$

ARZ036-311600-
EAST ARKANSAS

CITY           SKY/WX    TMP DP  RH WIND       PRES   REMARKS
WEST MEMPHIS   CLOUDY    40  27  59 E6        30.37F
$$

ARZ050-053-066-070-073-311600-
SOUTHWEST ARKANSAS

CITY           SKY/WX    TMP DP  RH WIND       PRES   REMARKS
ARKADELPHIA    FAIR      40  31  70 NE3       30.34F
CAMDEN         CLOUDY    39  28  65 MISG      30.33S
TEXARKANA      CLOUDY    41  29  62 SE7       30.30S
EL DORADO      CLOUDY    41  29  62 E7        30.33S
DE QUEEN       CLOUDY    41  29  62 E7        30.29F
$$

ARZ056-057-069-311600-
SOUTHEAST ARKANSAS

CITY           SKY/WX    TMP DP  RH WIND       PRES   REMARKS
PINE BLUFF     CLOUDY    40  29  64 E7        30.35R
STUTTGART      CLOUDY    39  27  60 SE7       30.36R
MONTICELLO     CLOUDY    39  29  67 SE7       30.34F

$$





USA.gov is the U.S. government's official web portal to all federal, state and local government web resources and services.